If you wish to contribute or participate in the discussions about articles you are invited to join SKYbrary as a registered user

 Actions

Campo Grande International Airport

From SKYbrary Wiki

SBCG
Airport
ICAO: SBCG – IATA: CGR
Summary
Name Campo Grande International Airport
Region South America and Caribbean
Territory Brazil BR.gif
Location Campo Grande, Mato Grosso do Sul
Serving Campo Grande
Elevation 559.003 m
1,834 ft559.003 m
Coordinates 20° 28' 9.98" S, 54° 40' 13.01" W
Runways
Designator Length Width Surface ROPS
6/24 2600 m8,530.184 ft
43 m141.076 ft
CON yes/yes


METAR
Observation SBCG 252200Z 31005KT 9999 VCSH FEW006 SCT020 FEW040TCU BKN080 23/23 Q1011
Station Campo Grande Aeroporto
Date/Time 25 February 2020 22:00:00
Wind direction 310°
Wind speed 05 kts
Lowest cloud amount few clouds
Temperature 23°C
Dew point 23°C
Humidity 100%
QNH 1011 hPa
Weather condition in vicinity: showers

Campo Grande International Airport, sometimes also informally referred to as Antônio João Airport, after the neighborhood where it is located, is the airport serving Campo Grande, Brazil.

Climatology

Tropical savannah climate (Köppen climate classification Aw)

Maps

Terrain

Loading map...

Airport Layout

Loading map...


Accidents & Serious Incidents at or in vicinity of SBCG

None on SKYbrary